Regional Weather Roundup
Issued by NWS Newport/Morehead, NC

Current Version | Previous Version | Graphics & Text | Print | Product List | Glossary Off
Versions: 1 2 3 4 5 6 7 8 9 10 11 12 13 14 15 16 17 18 19 20 21 22 23 24 25 26 27 28 29 30 31 32 33 34 35 36 37 38 39 40 41 42 43 44 45 46 47 48 49 50
000 ASUS42 KMHX 310310 RWRMHX WEATHER ROUNDUP FOR EASTERN NORTH CAROLINA NATIONAL WEATHER SERVICE NEWPORT/MOREHEAD CITY NC 1100 PM EDT THU OCT 30 2014 NOTE: "FAIR" INDICATES FEW OR NO CLOUDS BELOW 12,000 FEET WITH NO SIGNIFICANT WEATHER AND/OR OBSTRUCTIONS TO VISIBILITY NCZ015>017-031-032-045>047-102-103-310400- NORTH COAST CITY SKY/WX TMP DP RH WIND PRES REMARKS EDENTON CLEAR 50 45 83 NE3 30.01S ELIZABETH CITY CLEAR 55 47 74 N7 30.01S KITTY HAWK PTCLDY 60 46 59 NE8 29.98S MANTEO PTCLDY 59 46 60 NE9 29.99F $$ NCZ045>047-081-094-103-104-310400- CENTRAL COAST CITY SKY/WX TMP DP RH WIND PRES REMARKS FRISCO CLEAR 60 50 69 NE12G17 29.96S SWANQUARTER N/A 54 N/A N/A NE2 29.94S $$ NCZ095-097-098-100-101-310400- SOUTHERN COAST CITY SKY/WX TMP DP RH WIND PRES REMARKS BEAUFORT CLEAR 54 51 90 N7 29.96F CEDAR ISLAND N/A 63 N/A N/A N16G22 30.00S JACKSONVILLE CLEAR 57 52 83 NE9 29.97S PINEY ISLAND CLEAR 63 50 62 NE13 29.96F WILMINGTON CLEAR 53 50 89 NE7 29.97R $$ NCZ011>013-027>030-043-044-078>080-089-090>093-098-310400- COASTAL PLAIN CITY SKY/WX TMP DP RH WIND PRES REMARKS AHOSKIE NOT AVBL CLINTON CLEAR 52 48 86 CALM 29.98S ELIZABETHTOWN CLEAR 53 47 81 CALM 29.97F GOLDSBORO CLEAR 50 49 97 E2 29.97S GREENVILLE CLEAR 52 48 87 E3 30.02S HAVELOCK CLEAR 58 49 72 NE10 29.98S KENANSVILLE CLEAR 47 46 96 CALM 29.99S KINSTON CLEAR 49 46 91 CALM 30.00S NEW BERN CLEAR 57 50 77 NE7 29.99S RICHLANDS CLEAR 48 46 93 CALM 29.98S ROCKY MOUNT CLEAR 50 45 83 NE6 30.01R WASHINGTON CLEAR 50 46 86 NE3 30.00S WHITEVILLE CLEAR 54 49 83 CALM 29.96S $$ AMZ130-135-150-152-154-156-158-170-250-252-270-ANZ085-086-088-633-658-670-310400- MARINE OBSERVATIONS STATION/POSITION TIME TEMP WIND PRES WAVE SWELL AIR SEA DIR/SP/G HT/PER HT/PER (UTC) (F) (DEG/KT/KT) (MB) (FT/S) (FT/S) CHESAPEAKE LIGHT 0200 59 20/ 14/ 15 1016.7 64 E VA BEACH 0300 61 66 30/ 10/ 16 1015.4 2/ 7 2/ 7 DUCK 0200 30/ 13/ 18 N/A 2 E DUCK NOT AVBL 10 NE DUCK 0300 67 N/A 3/ 5 OREGON INLET NOT AVBL 13E OREGON INLT 0300 69 N/A 4/ 5 HATTERAS CG NOT AVBL DIAMOND BUOY 0300 65 20/ 19/ 25 1013.6 4/ 5 2/ 8 17 S OCRACOKE NOT AVBL CAPE LOOKOUT 0200 62 20/ 14/ 17 1014.4 BEAUFORT LAB NOT AVBL 30 SE NEW RIVER 0200 66 74 30/ 19/ 23 1013.3 5 SE WRIGHTSVLE 0200 63 71 60/ 16/ 17 N/A 225 S CAPE HAT 0223 75 78 170/ 6/ 8 1011.9 3/ 7 3/ 7 41 SE CHARLESTON 0300 70 77 30/ 14/ 16 1012.3 4/ 6 2/ 7 $$

USA.gov is the U.S. government's official web portal to all federal, state and local government web resources and services.